Temp
63 63 63 63 63 63 64 64 64 65 65 65 63 63 62 63 64 63 64 64 64 64 64 64 65 65 65 64 64 63 64 64 63 64 65 64 63 64 63 63 64 63
63 63 63 64 64 64 63 63 63 63 64 64 65 64 63 63 64 64 64 64 64 64 64 64 64 63 63 63 64 64 64 64 63 65 63 62 63 63 63 63 63 64
63 62 62 62 62 62 62 61 62 62 62 63 64 65 65 65 64 63 64 64 64 64 64 64 64 64 63 62 63 63 63 63 63 64 63 63 63 63 63 63 63 63
61 61 62 63 63 62 62 60 61 61 61 61 63 65 66 66 66 64 63 65 64 65 64 64 64 64 63 64 63 63 62 63 64 64 64 64 64 64 63 63 63 63
61 61 61 61 62 63 63 62 61 61 61 61 62 64 65 66 66 66 65 65 65 64 64 63 63 63 62 63 63 62 62 62 63 63 62 62 63 63 63 63 63 63
60 62 62 60 60 61 62 62 63 62 62 62 62 63 64 66 66 65 65 66 65 64 64 64 63 63 62 63 62 62 62 62 63 63 62 62 62 63 63 63 63 62
56 57 57 57 57 58 59 61 62 63 63 64 64 63 64 65 65 65 66 65 65 64 63 63 64 63 62 61 61 62 62 62 62 63 63 62 62 62 62 63 62 63
57 58 58 57 57 58 58 59 61 62 63 64 63 64 65 64 65 65 65 64 63 64 64 63 62 62 63 62 61 61 61 62 62 62 61 62 63 63 64 64 62 62
57 58 59 58 59 59 60 61 62 62 63 62 62 62 63 63 62 63 63 64 64 63 64 63 63 62 62 63 63 62 62 62 62 62 61 61 61 62 63 63 61 61
58 58 59 60 60 60 60 61 61 61 61 60 59 59 59 60 60 61 62 61 61 62 62 62 62 62 60 59 59 59 61 62 63 62 62 62 62 62 63 62 61 61
57 58 58 58 58 58 58 60 60 59 59 58 57 57 57 57 58 58 58 58 58 59 60 60 60 54 53 53 53 54 53 54 57 61 63 63 63 63 64 63 62 62
58 58 57 57 57 58 59 59 59 58 57 57 57 57 57 57 57 57 57 56 56 56 57 57 57 52 51 51 51 51 51 51 53 55 59 62 63 62 62 62 62 62
56 57 57 57 57 57 59 59 58 58 58 57 58 57 56 56 56 56 56 55 55 55 54 55 55 51 50 49 48 48 48 49 50 52 55 59 62 63 63 63 63 62
56 56 57 58 58 58 58 58 57 57 57 58 58 57 56 56 55 55 55 55 54 54 54 54 54 50 49 47 47 47 46 46 47 49 52 55 59 62 63 63 63 63
57 57 58 58 58 57 56 56 56 56 57 57 57 56 56 56 56 55 54 53 53 53 53 53 52 49 48 46 45 44 45 44 45 47 49 52 55 59 62 63 62 62
57 57 58 58 57 56 54 54 54 55 56 56 56 56 56 56 55 54 53 52 51 51 51 51 51 49 48 45 44 43 43 43 44 45 47 50 52 55 59 61 62 62
57 56 57 56 57 57 56 55 54 54 54 55 55 55 54 55 54 53 52 51 50 50 49 49 49 49 44 41 41 41 42 42 42 43 45 47 50 54 57 60 61 62
56 56 56 55 56 56 56 55 54 53 52 53 53 53 53 54 53 52 51 50 49 49 48 48 48 47 42 41 41 40 41 42 42 42 44 47 49 53 56 59 61 62
55 55 55 55 55 55 56 55 54 53 52 51 51 52 52 51 52 51 50 50 49 48 48 48 48 45 41 41 40 40 40 41 42 43 44 45 48 51 54 57 60 61
54 54 53 54 55 55 55 54 53 53 53 52 51 51 50 50 51 50 49 48 48 47 47 47 47 44 41 41 40 40 39 40 46 46 45 47 49 51 54 57 59 60
53 53 53 53 54 53 53 52 52 52 52 52 51 50 50 49 49 48 48 48 47 47 46 46 46 43 41 40 40 40 39 42 51 53 53 53 53 54 56 57 58 60
51 51 50 50 51 50 50 49 50 50 50 51 51 51 51 50 50 49 47 47 47 46 45 45 46 42 41 40 40 40 40 46 50 51 50 49 50 50 50 51 52 53
49 49 48 48 49 48 48 47 47 48 48 50 49 50 49 49 48 48 48 47 46 46 45 44 45 44 41 40 40 40 42 45 46 48 48 47 47 48 48 49 49 50
48 47 47 46 47 47 47 47 47 48 48 49 48 48 48 49 49 48 48 47 46 45 45 44 44 44 41 40 40 40 42 44 44 45 46 45 46 47 47 46 47 48
47 47 47 46 46 46 47 46 46 46 47 48 48 48 48 49 49 48 47 47 47 46 47 44 43 43 42 40 40 40 42 44 43 43 43 44 44 44 45 45 45 46
47 47 46 47 45 45 46 46 45 45 45 45 46 46 46 47 48 47 46 46 46 46 45 44 43 43 43 40 40 40 40 43 42 41 41 42 43 43 43 44 44 44
MSLP
1018.70 1018.62 1018.58 1018.50 1018.38 1018.26 1018.22 1018.10 1017.90 1017.74 1017.46 1017.14 1016.98 1016.78 1016.66 1016.46 1016.30 1016.26 1016.14 1016.06 1015.98 1015.90 1015.82 1015.74 1015.70 1015.70 1015.82 1015.90 1015.58 1015.58 1015.78 1015.78 1015.82 1015.90 1015.86 1015.90 1015.98 1015.86 1015.78 1015.78 1015.86 1015.94
1018.74 1018.70 1018.62 1018.54 1018.46 1018.38 1018.30 1018.26 1018.10 1017.94 1017.70 1017.42 1017.10 1016.74 1016.46 1016.30 1016.14 1016.06 1016.02 1015.94 1015.82 1015.70 1015.54 1015.50 1015.50 1015.58 1015.82 1016.02 1015.74 1015.62 1015.62 1015.62 1015.66 1015.58 1015.78 1015.98 1015.94 1015.74 1015.74 1015.78 1015.78 1015.70
1018.90 1018.90 1018.82 1018.82 1018.78 1018.66 1018.50 1018.30 1018.18 1018.02 1017.90 1017.66 1017.30 1016.98 1016.70 1016.26 1016.06 1015.94 1015.86 1015.82 1015.78 1015.62 1015.50 1015.34 1015.26 1015.18 1015.50 1015.74 1015.54 1015.50 1015.54 1015.42 1015.30 1015.14 1015.38 1015.42 1015.54 1015.70 1015.66 1015.66 1015.74 1015.94
1019.10 1019.10 1019.02 1018.94 1018.86 1018.78 1018.54 1018.34 1018.18 1018.06 1017.86 1017.66 1017.42 1017.06 1016.74 1016.34 1016.06 1015.86 1015.74 1015.66 1015.62 1015.42 1015.30 1015.22 1015.14 1015.14 1015.26 1015.38 1015.42 1015.42 1015.42 1015.30 1015.02 1014.82 1014.78 1014.78 1014.94 1015.02 1015.14 1015.30 1015.30 1015.18
1019.22 1019.26 1019.18 1019.06 1018.90 1018.74 1018.58 1018.42 1018.22 1017.98 1017.86 1017.66 1017.38 1017.06 1016.78 1016.54 1016.26 1015.98 1015.74 1015.54 1015.38 1015.26 1015.14 1015.02 1014.98 1015.06 1015.06 1015.02 1015.02 1015.06 1015.02 1014.98 1014.82 1014.78 1014.74 1014.66 1014.54 1014.58 1014.50 1014.62 1014.58 1014.58
1019.26 1019.14 1019.02 1018.94 1018.82 1018.66 1018.54 1018.38 1018.22 1018.06 1017.78 1017.54 1017.38 1017.18 1016.94 1016.70 1016.54 1016.30 1015.98 1015.66 1015.38 1015.26 1015.14 1014.94 1014.90 1014.86 1014.86 1014.74 1014.58 1014.54 1014.50 1014.50 1014.42 1014.54 1014.74 1014.62 1014.50 1014.42 1014.30 1014.34 1014.38 1014.42
1019.26 1019.06 1018.94 1018.86 1018.74 1018.54 1018.46 1018.34 1018.26 1018.06 1017.86 1017.62 1017.38 1017.18 1016.98 1016.86 1016.70 1016.46 1016.14 1015.90 1015.62 1015.34 1015.14 1014.94 1014.82 1014.74 1014.66 1014.58 1014.50 1014.46 1014.38 1014.30 1014.22 1014.26 1014.38 1014.30 1014.22 1014.14 1014.10 1014.06 1014.10 1014.18
1019.22 1018.98 1018.90 1018.78 1018.70 1018.58 1018.50 1018.38 1018.22 1018.10 1017.90 1017.70 1017.54 1017.34 1017.14 1017.02 1016.90 1016.70 1016.42 1016.14 1015.86 1015.46 1015.14 1014.98 1014.86 1014.74 1014.62 1014.54 1014.50 1014.42 1014.34 1014.22 1014.14 1014.06 1014.02 1014.02 1013.90 1013.82 1013.66 1013.66 1013.86 1014.06
1019.26 1019.10 1018.98 1018.86 1018.74 1018.66 1018.58 1018.42 1018.34 1018.26 1018.10 1018.06 1017.94 1017.82 1017.62 1017.50 1017.38 1017.06 1016.74 1016.46 1016.06 1015.74 1015.46 1015.34 1015.14 1014.94 1014.70 1014.50 1014.38 1014.26 1014.10 1013.90 1013.74 1013.74 1013.74 1013.74 1013.70 1013.58 1013.46 1013.46 1013.74 1013.66
1019.42 1019.30 1019.18 1019.06 1018.98 1018.90 1018.82 1018.70 1018.62 1018.62 1018.54 1018.50 1018.46 1018.34 1018.18 1018.02 1017.86 1017.54 1017.18 1016.94 1016.58 1016.22 1015.90 1015.70 1015.46 1015.34 1015.46 1015.50 1015.38 1014.98 1014.46 1013.90 1013.46 1013.30 1013.26 1013.30 1013.26 1013.14 1013.02 1013.06 1013.14 1013.30
1019.70 1019.58 1019.54 1019.42 1019.34 1019.22 1019.14 1019.06 1018.94 1018.94 1018.94 1018.86 1018.82 1018.70 1018.58 1018.46 1018.22 1018.02 1017.78 1017.54 1017.30 1016.90 1016.46 1016.22 1016.06 1016.62 1016.50 1016.30 1016.02 1015.82 1015.54 1015.06 1014.30 1013.50 1013.06 1012.94 1012.78 1012.54 1012.42 1012.46 1012.62 1012.86
1020.06 1019.90 1019.86 1019.82 1019.70 1019.54 1019.42 1019.38 1019.30 1019.26 1019.22 1019.14 1019.10 1019.02 1018.86 1018.74 1018.58 1018.46 1018.26 1018.06 1017.82 1017.50 1017.22 1016.86 1016.66 1016.94 1016.94 1016.82 1016.58 1016.22 1015.86 1015.42 1014.90 1014.22 1013.38 1012.70 1012.30 1012.18 1012.30 1012.26 1012.30 1012.50
1020.46 1020.30 1020.18 1020.14 1020.06 1019.90 1019.74 1019.70 1019.66 1019.62 1019.46 1019.38 1019.26 1019.22 1019.14 1019.06 1018.90 1018.78 1018.58 1018.42 1018.22 1017.98 1017.66 1017.30 1017.06 1017.26 1017.26 1017.18 1016.98 1016.66 1016.30 1015.90 1015.34 1014.62 1013.94 1013.06 1012.26 1011.82 1011.66 1011.66 1011.74 1011.94
1020.78 1020.58 1020.46 1020.38 1020.26 1020.18 1020.10 1020.10 1020.10 1019.98 1019.82 1019.66 1019.50 1019.38 1019.30 1019.26 1019.14 1019.06 1018.94 1018.74 1018.58 1018.42 1018.10 1017.70 1017.42 1017.66 1017.66 1017.62 1017.42 1017.10 1016.66 1016.14 1015.62 1015.02 1014.26 1013.54 1012.62 1011.90 1011.54 1011.38 1011.34 1011.46
1020.94 1020.78 1020.62 1020.50 1020.42 1020.38 1020.38 1020.38 1020.34 1020.26 1020.14 1019.94 1019.78 1019.58 1019.42 1019.34 1019.22 1019.18 1019.10 1018.98 1018.90 1018.70 1018.42 1018.18 1017.86 1018.10 1018.14 1018.14 1017.78 1017.10 1016.70 1016.34 1015.74 1015.10 1014.46 1013.70 1012.86 1012.02 1011.46 1011.18 1011.06 1011.06
1021.22 1021.10 1020.94 1020.82 1020.66 1020.58 1020.66 1020.62 1020.54 1020.46 1020.34 1020.18 1020.02 1019.82 1019.62 1019.42 1019.34 1019.34 1019.34 1019.26 1019.18 1018.98 1018.78 1018.58 1018.26 1018.30 1018.42 1018.26 1018.02 1017.74 1017.02 1016.34 1015.78 1015.14 1014.50 1013.74 1013.02 1012.22 1011.50 1011.06 1010.82 1010.82
1021.50 1021.46 1021.26 1021.10 1020.98 1020.82 1020.78 1020.78 1020.74 1020.66 1020.54 1020.34 1020.22 1020.10 1019.90 1019.62 1019.54 1019.62 1019.62 1019.62 1019.54 1019.34 1019.18 1019.02 1018.78 1018.66 1018.66 1018.30 1017.70 1017.22 1016.90 1016.30 1015.74 1015.10 1014.46 1013.74 1012.94 1012.22 1011.54 1010.90 1010.54 1010.34
1021.86 1021.74 1021.58 1021.38 1021.22 1021.10 1021.02 1020.94 1020.90 1020.86 1020.78 1020.66 1020.50 1020.42 1020.22 1020.06 1019.86 1019.90 1019.98 1019.94 1019.82 1019.66 1019.50 1019.30 1019.06 1018.94 1018.74 1018.22 1017.62 1016.94 1016.46 1016.06 1015.42 1014.82 1014.14 1013.38 1012.74 1012.10 1011.38 1010.78 1010.30 1010.06
1022.30 1022.18 1021.98 1021.74 1021.54 1021.42 1021.30 1021.14 1021.06 1021.02 1020.94 1020.86 1020.82 1020.78 1020.62 1020.38 1020.26 1020.22 1020.22 1020.18 1020.10 1019.94 1019.74 1019.46 1019.22 1019.06 1018.70 1018.14 1017.54 1016.82 1016.02 1015.46 1014.86 1014.34 1013.86 1013.22 1012.62 1011.98 1011.34 1010.62 1010.10 1009.74
1022.66 1022.54 1022.38 1022.18 1021.94 1021.82 1021.70 1021.50 1021.42 1021.34 1021.18 1021.14 1021.10 1020.98 1020.90 1020.78 1020.66 1020.66 1020.58 1020.50 1020.38 1020.22 1020.02 1019.74 1019.46 1019.18 1018.78 1018.14 1017.46 1016.70 1015.86 1015.10 1014.10 1013.54 1013.30 1012.86 1012.30 1011.74 1011.22 1010.62 1010.02 1009.54
1022.98 1022.82 1022.70 1022.54 1022.38 1022.26 1022.10 1021.94 1021.82 1021.70 1021.50 1021.38 1021.34 1021.30 1021.22 1021.14 1021.10 1021.10 1021.02 1020.90 1020.70 1020.50 1020.26 1019.98 1019.66 1019.34 1018.86 1018.30 1017.58 1016.82 1015.90 1014.78 1013.66 1012.98 1012.50 1012.14 1011.74 1011.30 1010.86 1010.38 1009.90 1009.46
1023.18 1023.14 1023.02 1022.90 1022.78 1022.66 1022.54 1022.42 1022.26 1022.14 1021.98 1021.78 1021.66 1021.54 1021.46 1021.38 1021.42 1021.34 1021.30 1021.14 1020.94 1020.66 1020.38 1020.14 1019.70 1019.38 1019.02 1018.46 1017.82 1017.02 1016.14 1015.10 1014.26 1013.62 1013.30 1012.86 1012.38 1012.02 1011.58 1011.18 1010.70 1010.18
1023.38 1023.34 1023.26 1023.18 1023.18 1023.10 1022.98 1022.86 1022.74 1022.62 1022.46 1022.22 1022.06 1021.90 1021.74 1021.66 1021.66 1021.62 1021.54 1021.42 1021.22 1020.94 1020.70 1020.38 1019.90 1019.46 1019.18 1018.66 1018.10 1017.50 1016.46 1015.82 1015.18 1014.38 1013.82 1013.38 1012.94 1012.46 1012.06 1011.54 1011.06 1010.58
1023.54 1023.50 1023.46 1023.46 1023.54 1023.50 1023.46 1023.34 1023.22 1023.02 1022.86 1022.62 1022.46 1022.30 1022.14 1021.98 1021.86 1021.82 1021.74 1021.62 1021.46 1021.26 1021.02 1020.82 1020.38 1019.82 1019.46 1018.98 1018.42 1017.90 1017.34 1016.66 1016.06 1015.30 1014.50 1013.98 1013.38 1012.82 1012.42 1011.94 1011.38 1010.78
1023.70 1023.66 1023.62 1023.70 1023.82 1023.82 1023.74 1023.66 1023.54 1023.42 1023.26 1022.98 1022.82 1022.62 1022.50 1022.26 1022.06 1021.94 1021.90 1021.74 1021.62 1021.46 1021.18 1020.98 1020.66 1020.14 1019.74 1019.38 1018.86 1018.30 1017.66 1017.06 1016.62 1016.06 1015.30 1014.58 1013.94 1013.26 1012.66 1012.14 1011.46 1010.86
1023.82 1023.82 1023.82 1023.82 1023.94 1023.98 1023.94 1023.86 1023.82 1023.66 1023.54 1023.38 1023.22 1023.06 1022.94 1022.70 1022.42 1022.26 1022.14 1021.98 1021.78 1021.54 1021.34 1021.10 1020.82 1020.46 1020.06 1019.74 1019.26 1018.66 1018.14 1017.62 1017.14 1016.54 1015.94 1015.18 1014.62 1013.98 1013.18 1012.34 1011.62 1010.94
Wind_Speed
6 5 5 6 6 6 6 8 8 7 7 6 5 5 5 5 4 5 5 5 5 5 5 5 5 5 4 6 8 8 6 7 7 6 7 8 9 9 9 11 11 9
6 5 6 6 6 7 7 7 7 8 9 10 8 6 5 4 5 4 5 5 5 6 6 5 4 2 2 1 5 5 6 6 8 6 5 5 7 8 9 9 9 8
8 7 6 7 7 8 8 6 6 7 7 8 8 9 8 5 5 4 4 5 5 6 6 6 5 6 3 5 7 6 6 7 8 7 7 9 8 8 8 8 7 9
8 8 8 7 7 6 6 6 7 6 6 7 8 9 8 9 7 5 5 5 5 6 6 5 5 4 2 2 4 5 6 7 7 6 7 6 5 6 7 7 9 10
6 6 5 5 5 6 5 6 7 7 6 5 7 9 9 10 11 9 7 6 4 5 5 6 5 5 2 3 4 5 6 6 6 5 6 7 6 6 8 8 8 8
5 5 3 3 3 4 5 7 7 6 7 8 7 7 8 9 9 10 10 9 6 5 4 5 5 5 4 6 6 5 6 7 7 5 6 7 6 6 7 6 8 10
4 4 4 3 3 4 3 6 6 7 7 7 7 8 8 8 9 10 10 10 10 7 4 4 5 5 3 4 5 6 6 6 5 5 6 6 6 8 8 8 7 8
5 5 5 4 5 5 5 5 6 7 9 9 9 9 10 11 12 11 10 11 10 11 8 6 6 5 5 4 5 6 6 5 6 6 6 6 6 7 7 7 3 4
6 7 7 6 9 8 9 10 9 11 11 12 12 12 12 12 13 12 12 12 12 11 10 10 10 9 8 7 7 7 7 7 7 6 6 7 7 8 8 6 6 8
8 9 10 10 11 10 12 12 11 11 11 11 11 11 12 12 12 13 12 13 13 13 12 10 11 13 15 16 16 15 14 11 8 7 7 7 7 8 8 7 8 9
9 10 11 12 12 10 12 11 11 10 10 11 11 11 11 10 10 11 11 12 12 13 14 13 12 13 11 11 10 10 11 12 14 11 8 7 7 8 9 8 9 9
11 10 11 12 12 11 12 12 11 10 11 9 11 11 11 11 11 11 11 11 12 12 13 13 10 10 12 11 12 12 12 13 11 12 13 11 10 9 8 9 9 8
11 11 10 10 11 11 11 12 12 12 12 11 10 10 11 12 12 12 11 11 12 12 12 12 9 10 11 13 13 12 12 12 12 12 12 13 10 10 9 8 9 7
9 9 9 10 10 10 11 11 12 12 11 11 10 10 10 11 12 13 11 11 12 12 12 12 10 12 12 13 13 13 12 13 12 11 11 12 13 11 9 9 9 9
9 8 8 9 9 8 9 10 10 10 11 10 10 10 8 9 10 11 13 13 13 13 13 11 10 8 11 15 16 17 13 12 12 12 12 11 12 12 10 9 7 6
10 10 10 10 10 9 7 8 8 9 10 10 10 11 10 9 11 12 12 14 14 14 13 11 9 7 19 27 21 15 15 12 11 11 11 11 11 11 11 9 9 7
9 10 10 10 10 10 8 8 9 8 9 10 10 11 12 11 10 13 14 14 14 13 14 11 10 12 24 23 24 24 17 12 12 12 12 11 10 11 11 9 8 8
10 10 10 10 10 10 10 9 8 8 9 9 10 13 12 11 12 12 12 13 12 13 13 12 11 18 23 24 25 25 23 15 11 10 10 10 10 11 11 10 8 8
11 11 11 10 10 11 10 9 9 9 9 9 10 10 10 11 12 12 12 12 12 14 14 13 13 19 23 25 25 25 25 20 10 10 9 11 10 11 11 11 9 8
10 10 11 11 10 11 11 11 10 11 10 7 7 9 10 11 11 13 12 13 13 13 11 12 13 19 24 25 26 27 26 22 11 9 8 9 10 10 10 10 10 9
9 10 10 10 10 10 11 11 11 10 11 10 7 9 10 10 11 12 12 12 12 12 11 11 11 22 23 25 26 27 27 19 11 11 9 8 8 9 10 11 12 12
8 8 9 8 9 10 10 10 10 11 11 10 9 8 8 7 9 10 11 12 12 12 11 12 12 20 23 24 26 27 26 13 13 12 12 11 11 9 10 9 10 11
6 6 7 8 8 10 11 10 10 10 10 9 9 9 9 8 8 9 9 10 11 12 12 11 12 18 23 24 25 27 21 14 14 12 11 11 10 11 10 9 9 11
5 6 7 7 8 10 10 9 9 8 8 8 9 9 9 9 7 7 9 9 10 11 13 12 12 16 22 23 24 24 20 14 13 12 11 12 11 11 10 9 12 19
5 5 6 7 7 9 8 8 8 8 7 7 8 7 8 8 7 6 8 9 9 10 15 13 11 14 20 22 23 23 19 10 11 11 11 12 12 12 11 9 10 13
5 5 6 7 6 7 7 7 5 6 7 7 7 7 7 7 8 7 8 8 9 9 10 11 12 12 16 22 21 21 22 14 9 13 13 14 12 11 13 13 12 13
Wind_Direction
30 25 8 359 347 343 354 353 347 337 328 309 277 280 275 277 278 270 271 269 254 256 256 243 228 240 228 203 230 235 232 238 256 280 257 214 224 234 230 228 228 226
22 21 12 9 4 3 0 355 346 346 343 342 323 289 285 283 275 268 273 271 267 267 271 270 273 274 212 260 254 238 245 236 237 227 233 256 259 252 248 243 242 240
25 12 16 16 12 1 351 345 354 358 353 341 342 340 321 297 291 281 280 286 275 262 265 266 261 255 224 185 249 251 233 234 236 230 242 242 201 216 239 246 245 247
31 22 17 16 8 1 344 348 2 352 345 345 341 334 334 331 312 290 282 281 278 274 260 261 261 259 208 214 255 272 255 235 237 235 238 244 237 225 220 213 230 230
46 34 21 9 357 359 355 359 354 345 342 336 338 342 343 342 335 322 306 295 278 284 287 277 277 278 236 216 220 237 264 266 250 233 238 250 243 239 239 222 220 236
50 41 16 4 354 359 6 4 353 345 343 348 350 341 344 342 347 340 329 318 308 290 285 286 277 260 221 223 237 237 231 239 243 228 234 246 251 248 255 235 227 235
42 17 357 347 338 349 11 13 4 357 353 352 347 351 343 348 348 340 339 344 330 309 286 289 291 291 253 238 256 260 253 248 249 234 235 238 235 240 239 246 236 233
28 5 358 353 359 359 7 7 10 10 5 0 2 1 357 356 356 352 353 352 345 340 324 315 313 310 306 285 270 264 263 259 259 248 242 248 242 254 251 238 251 261
20 10 7 10 16 17 19 14 17 19 13 17 13 7 6 4 358 353 353 354 351 347 358 350 342 327 315 306 295 287 280 272 257 250 246 244 243 248 253 236 219 230
21 14 17 21 23 23 19 18 21 24 17 19 18 10 9 6 357 356 356 355 356 353 351 1 356 7 9 6 359 350 336 312 282 261 249 241 244 246 244 221 217 218
19 22 26 23 22 19 20 19 19 22 21 19 18 14 8 6 358 0 2 357 358 353 353 357 14 28 16 3 358 356 351 342 332 312 281 259 244 237 239 239 235 229
22 24 28 24 20 17 20 19 16 20 19 19 19 15 10 11 6 4 6 360 356 360 356 350 20 25 20 2 359 349 344 339 328 325 314 284 259 251 247 248 248 232
22 20 24 27 21 17 19 21 19 16 14 15 16 16 13 13 12 5 9 3 359 2 357 350 14 24 17 6 354 347 338 333 326 319 317 311 285 269 262 248 235 229
22 16 23 27 25 22 23 25 22 16 12 10 10 15 15 16 12 10 10 5 3 3 358 355 11 23 12 357 348 339 333 325 319 311 306 306 300 284 267 254 243 231
21 17 23 23 22 27 29 30 25 20 16 9 9 9 9 15 13 13 13 9 5 4 0 359 8 28 9 353 342 335 328 319 311 306 301 294 293 291 279 267 255 232
22 18 16 17 17 20 30 29 29 24 18 11 13 11 5 10 20 16 15 11 4 4 3 1 2 20 356 346 341 334 324 315 307 299 296 291 289 289 285 271 259 238
27 23 12 16 19 17 20 26 26 24 18 15 17 16 10 9 19 19 16 11 6 3 3 2 358 358 349 342 338 334 330 314 305 296 289 286 282 281 282 275 260 253
26 21 14 12 18 21 19 20 22 23 21 19 22 20 13 11 16 20 17 12 7 5 4 360 356 355 346 342 338 333 329 321 301 285 283 282 284 282 279 280 272 259
24 17 12 12 19 19 15 16 20 21 20 23 29 23 13 15 15 16 14 11 9 6 3 1 360 353 347 345 341 335 331 326 303 287 278 282 286 282 277 276 274 266
22 18 15 14 17 20 16 14 18 21 17 21 29 26 20 17 18 18 14 13 9 4 0 358 0 353 349 348 345 341 336 330 311 295 275 273 280 283 281 283 278 269
22 20 19 18 20 21 19 18 19 20 18 15 23 26 23 20 20 19 17 14 12 8 5 360 359 354 353 352 350 347 342 331 327 338 335 318 302 295 293 283 277 273
26 22 19 20 21 22 21 18 21 19 18 15 17 19 22 25 30 26 18 14 11 9 6 2 355 357 357 356 356 353 346 346 346 350 352 349 349 346 340 340 334 328
26 23 22 22 25 28 22 18 20 19 17 15 16 16 13 19 31 24 17 11 8 7 6 358 356 358 359 359 360 359 356 357 352 346 352 348 347 343 340 336 336 331
21 24 25 24 35 35 26 22 22 20 20 15 16 13 15 14 19 20 19 12 7 7 6 358 353 354 359 359 0 2 3 2 355 348 347 354 343 344 342 338 339 341
25 26 29 35 43 38 31 27 23 20 14 13 16 16 15 9 11 15 16 14 10 5 3 4 357 355 359 358 359 3 6 356 353 349 349 352 349 344 343 342 342 346
31 32 33 42 48 43 35 29 20 20 15 17 17 16 12 8 10 13 13 13 9 7 7 5 1 358 358 358 360 1 7 5 347 1 352 347 350 350 354 350 350 353